LAPAN-A3 (41603 NORAD) Tracking and Keplerian Element Data

This shows tracking and keplerian element data for the satellite.

Feedback or suggestion? Click here.




ElementValue
Catalog41603
NameLAPAN-A3
Epoch Orbit44185
Epoch Day160.18823421
Epoch Year2024
RAAN174.316
Inclination97.1413
Eccentricity0.0013614
Argument of Perigee128.4659
Mean Anonmoly231.7804
Mean Motion15.2519711
Decay Rate5.443E-05
L11 41603U 16040E 24160.18823421 .00005443 00000+0 21903-3 0 9990
L22 41603 97.1413 174.3160 0013614 128.4659 231.7804 15.25197110441852



Live tracking and technical data element details for LAPAN-A3 (NORAD 41603). LAPAN-A3 can be tracked NOW for your location showing map with azimuth and elevation plus other details from your city location.







IsCatalogInMostPopularTable: catalog: 41603, numindb: 612
Update: records affected: 1



GetName: 41603 LAPAN-A3

Hit Count: updated at: Mon, 17 Jun 2024 22:39:07 GMT